Change the Weather History Date:

Saturday, January 18, 2014

  Actual Average Record
Temperature  
Mean Temperature 41 °F 31 °F  
Max Temperature 54 °F 44 °F 65 °F (1920)
Min Temperature 27 °F 18 °F -19 °F (1984)
Degree Days  
Heating Degree Days 24 34  
Month to date heating degree days 625 617  
Since 1 July heating degree days 3076 3085  
Cooling Degree Days 0 0  
Month to date cooling degree days 0 0  
Year to date cooling degree days 0 0  
Moisture  
Dew Point 14 °F    
Average Humidity 40    
Maximum Humidity 63    
Minimum Humidity 16    
Precipitation  
Precipitation 0.00 in 0.02 in 0.28 in (1980)
Month to date precipitation 0.48 0.24  
Year to date precipitation 0.48 0.24  
Snow  
Snow 0.00 in - - ()
Month to date snowfall 6.2  
Since 1 July snowfall 14.3  
Snow Depth 0.00 in    
Sea Level Pressure  
Sea Level Pressure 30.12 in    
Wind  
Wind Speed 11 mph (SSW)    
Max Wind Speed 21 mph    
Max Gust Speed 24 mph    
Visibility 10 miles    
Events      
T = Trace of Precipitation, MM = Missing Value Source: NWS Daily Summary

Daily Weather History Graph

Daily Weather History Graph

Search for Another Location

Airport or City:

Trip Planner

Search our weather history database for the weather conditions in past years. The results will help you decide how hot, cold, wet, or windy it might be!

Date:

Astronomy

Jan. 18, 2014 Rise Set
Actual Time 7:16 AM MST 5:01 PM MST
Civil Twilight 6:47 AM MST 5:31 PM MST
Nautical Twilight 6:14 AM MST 6:04 PM MST
Astronomical Twilight 5:41 AM MST 6:36 PM MST
Moon 7:45 PM MST (1/18) 8:18 AM MST (1/18)
Length of Visible Light 10h 43m
Length of Day
9h 44m
Waning Gibbous, 94% of the Moon is Illuminated
Jan 18
Waning Gibbous
Jan 23
Last Quarter
Jan 30
New
Feb 6
First Quarter
Feb 14
Full

Hourly Weather History & Observations

Time (MST) Temp. Windchill Dew Point Humidity Pressure Visibility Wind Dir Wind Speed Gust Speed Precip Events Conditions
12:53 AM 39.0 °F 34.8 °F 12.9 °F 34% 30.03 in 10.0 mi NW 5.8 mph - N/A   Partly Cloudy
1:53 AM 33.1 °F 26.9 °F 14.0 °F 46% 30.05 in 10.0 mi SW 6.9 mph - N/A   Partly Cloudy
2:53 AM 28.9 °F 21.1 °F 15.1 °F 56% 30.07 in 10.0 mi SSW 8.1 mph - N/A   Partly Cloudy
3:53 AM 33.1 °F 26.9 °F 14.0 °F 46% 30.06 in 10.0 mi SSW 6.9 mph - N/A   Scattered Clouds
4:53 AM 30.9 °F 23.5 °F 14.0 °F 50% 30.11 in 10.0 mi SW 8.1 mph - N/A   Partly Cloudy
5:53 AM 30.0 °F 21.1 °F 14.0 °F 51% 30.14 in 10.0 mi SW 10.4 mph - N/A   Clear
6:53 AM 28.0 °F 18.6 °F 14.0 °F 56% 30.18 in 10.0 mi SW 10.4 mph - N/A   Partly Cloudy
7:53 AM 30.9 °F 24.3 °F 12.9 °F 47% 30.13 in 10.0 mi SW 6.9 mph - N/A   Partly Cloudy
8:53 AM 37.9 °F 30.5 °F 16.0 °F 41% 30.14 in 10.0 mi SW 11.5 mph - N/A   Partly Cloudy
9:53 AM 45.0 °F 40.1 °F 16.0 °F 31% 30.15 in 10.0 mi SW 9.2 mph - N/A   Partly Cloudy
10:53 AM 50.0 °F - 12.9 °F 23% 30.13 in 10.0 mi NW 3.5 mph - N/A   Partly Cloudy
11:53 AM 52.0 °F - 10.9 °F 19% 30.13 in 10.0 mi North 12.7 mph - N/A   Partly Cloudy
12:53 PM 52.0 °F - 14.0 °F 22% 30.10 in 10.0 mi NNE 15.0 mph - N/A   Partly Cloudy
1:53 PM 54.0 °F - 10.9 °F 18% 30.10 in 10.0 mi NE 15.0 mph 21.9 mph N/A   Clear
2:53 PM 54.0 °F - 8.1 °F 16% 30.13 in 10.0 mi NNE 16.1 mph - N/A   Clear
3:53 PM 51.1 °F - 12.0 °F 21% 30.15 in 10.0 mi ENE 10.4 mph - N/A   Clear
4:53 PM 41.0 °F 35.8 °F 16.0 °F 36% 30.19 in 10.0 mi ESE 8.1 mph - N/A   Clear
5:53 PM 35.1 °F 26.4 °F 17.1 °F 48% 30.22 in 10.0 mi South 12.7 mph - N/A   Clear
6:53 PM 33.1 °F 23.0 °F 18.0 °F 54% 30.21 in 10.0 mi South 15.0 mph - N/A   Clear
7:53 PM 30.9 °F 21.2 °F 19.0 °F 61% 30.20 in 10.0 mi South 12.7 mph - N/A   Clear
8:53 PM 30.9 °F 21.2 °F 18.0 °F 59% 30.15 in 10.0 mi SSW 12.7 mph - N/A   Clear
9:53 PM 34.0 °F 24.2 °F 17.1 °F 50% 30.10 in 10.0 mi SSW 15.0 mph - N/A   Clear
10:53 PM 37.0 °F 27.4 °F 15.1 °F 41% 30.06 in 10.0 mi SSW 17.3 mph - N/A   Clear
11:53 PM 37.0 °F 26.7 °F 14.0 °F 39% 30.04 in 10.0 mi SSW 19.6 mph - N/A   Clear